Вернуться в каталог

COSMOS 1823 DEB

АктивенLEO
NORAD 18752·DEBRIS·🇷🇺 Russia

Запущен Feb 20, 1987 с Plesetsk Cosmodrome

Loading…

Ближайшие Пролёты (ближайшие 24 часа)

TLE

СвежийSource: Space-Track

Эпоха: Sep 14, 2026, 07:02 UTC

1 18752U 87020AD  26257.29365098  .00000007  00000-0  13752-3 0  9992
2 18752  73.9237  13.1379 0059447 174.8944 211.7320 12.60395660780690

Отслеживайте COSMOS 1823 DEB в реальном времени с AllMySat

Download on the App Store